Simultaneous Nadir Overpasses (SNOs) Predictions

Prediction of SNOs between NPP and TERRA Satellite Orbit:

Table of predicted SNOs for the next 14.0 days since TLE Epoch: 8/17/2024
Index Date (NPP) Time (NPP) Lat,Lon (NPP) SZA (NPP ) Date (TERRA) Time (TERRA) Lat,Lon (TERRA) SZA (TERRA ) Distance(km) Time Diff (sec)
1 08/19/2024 13:32:24 72.54, -30.93 60.18 08/19/2024 13:32:58 72.55, -30.90 60.18 1.40 34
2 08/19/2024 14:23:06 -72.45, 136.58 119.92 08/19/2024 14:22:21 -72.46, 136.60 119.90 1.64 45
3 08/22/2024 00:44:49 72.56, 160.93 61.01 08/22/2024 00:45:50 72.58, 160.91 61.02 3.16 61
4 08/22/2024 01:35:32 -72.51, -31.65 119.04 08/22/2024 01:35:13 -72.50, -31.58 119.05 2.54 19
5 08/24/2024 11:57:25 73.15, -8.41 62.49 08/24/2024 11:58:33 73.02, -6.52 62.26 62.91 68
6 08/24/2024 12:47:57 -72.54, 160.18 118.17 08/24/2024 12:48:04 -72.52, 160.19 118.20 2.61 7
7 08/24/2024 13:38:39 72.34, -32.12 61.63 08/24/2024 13:37:26 72.40, -32.34 61.71 10.14 73
8 08/27/2024 00:00:22 -72.59, -8.01 117.27 08/27/2024 00:00:53 -72.56, -7.97 117.31 3.24 31
9 08/27/2024 00:51:05 72.45, 159.58 62.59 08/27/2024 00:50:15 72.44, 159.48 62.60 3.36 50
10 08/29/2024 11:12:46 -72.60,-176.15 116.39 08/29/2024 11:13:41 -72.58,-176.17 116.42 2.29 55
11 08/29/2024 12:03:30 72.52, -8.67 63.54 08/29/2024 12:03:02 72.51, -8.64 63.53 1.60 28



Historial Predications of SNOs between NPP and TERRA
